Waarnemingen

Advertentie
Mijn weer
La Hague, Frankrijk (7020): temperatuur & dauwpunt: 19.03.2019 23:00:00 - 25.03.2019 23:00:00 (CET)La Hague, Frankrijk (7020): windsnelheid & windstoten: 19.03.2019 23:00:00 - 25.03.2019 23:00:00 (CET)La Hague, Frankrijk (7020): windrichting: 19.03.2019 23:00:00 - 25.03.2019 23:00:00 (CET)La Hague, Frankrijk (7020): luchtdruk: 19.03.2019 23:00:00 - 25.03.2019 23:00:00 (CET)La Hague, Frankrijk (7020): zicht: 19.03.2019 23:00:00 - 25.03.2019 23:00:00 (CET)La Hague, Frankrijk (7020): neerslag: 19.03.2019 23:00:00 - 25.03.2019 23:00:00 (CET)
Datum & Tijd tt [°C] td [°C] ff [km/u] ff [kn] fx [km/u] fx [kn] dd ppp [hPa] vv [km] rr [mm]
25.03.2019 23:00:00 6,8 2,3 - - - - - 1035,2 - 0,0
25.03.2019 22:00:00 8,9 3,9 - - - - - 1035,0 14 0,0
25.03.2019 21:00:00 9,0 3,4 - - - - - 1034,6 - 0,0
25.03.2019 20:00:00 8,9 2,9 - - - - - 1034,1 - 0,0
25.03.2019 19:00:00 9,7 2,8 - - - - - 1033,7 14 0,0
25.03.2019 18:00:00 10,7 2,5 7 4 13 7 N 1033,5 - 0,0
25.03.2019 17:00:00 10,9 2,7 10 5 22 12 NNO 1033,2 - 0,0
25.03.2019 16:00:00 11,2 3,5 17 9 27 15 NNO 1033,3 15 0,0
25.03.2019 15:00:00 10,9 3,2 18 10 26 14 NNO 1033,4 - 0,0
25.03.2019 14:00:00 10,8 3,1 19 11 34 18 NNO 1033,5 - 0,0
25.03.2019 13:00:00 10,8 4,3 25 13 38 21 NNO 1033,7 15 0,0
25.03.2019 12:00:00 9,8 2,4 29 16 - - N 1033,6 - 0,0
25.03.2019 11:00:00 9,6 2,2 - - - - - 1033,4 - 0,0
25.03.2019 10:00:00 9,9 4,3 - - - - - 1032,8 12 0,0
25.03.2019 09:00:00 9,5 4,7 - - - - - 1032,3 - 0,0
25.03.2019 08:00:00 9,6 5,2 - - - - - 1031,6 - 0,0
25.03.2019 07:00:00 9,2 5,0 34 18 45 24 N 1031,3 12 0,0
25.03.2019 06:00:00 9,2 5,2 31 17 44 24 NNW 1030,6 - 0,0
25.03.2019 05:00:00 9,2 5,4 33 18 44 24 NNW 1030,7 - 0,0
25.03.2019 04:00:00 9,2 5,4 29 16 47 26 NNW 1030,9 12 0,0
25.03.2019 03:00:00 9,2 5,2 35 19 46 25 NNW 1031,1 - 0,0
25.03.2019 02:00:00 9,3 5,1 32 18 45 25 NNW 1031,2 - 0,0
25.03.2019 01:00:00 9,3 4,5 27 15 39 21 NNW 1031,3 12 0,0
25.03.2019 00:00:00 9,4 4,2 27 15 41 22 NNW 1031,1 - 0,0
24.03.2019 23:00:00 9,6 4,2 31 17 44 24 NNW 1031,4 - 0,0
24.03.2019 22:00:00 9,7 5,5 22 12 32 18 NW 1031,4 12 0,0
24.03.2019 21:00:00 9,6 6,1 21 12 28 15 NW 1031,3 - 0,0
24.03.2019 20:00:00 9,8 6,5 17 9 23 12 W 1031,1 - 0,0
24.03.2019 19:00:00 10,3 5,9 10 6 16 8 W 1030,8 12 0,0
24.03.2019 18:00:00 11,2 6,3 11 6 16 9 WNW 1030,9 - 0,0
24.03.2019 17:00:00 11,7 6,8 8 4 11 6 W 1030,8 - 0,0
24.03.2019 16:00:00 12,0 6,7 8 4 13 7 NW 1031,1 16 0,0
24.03.2019 15:00:00 11,6 5,5 9 5 13 7 NNW 1031,5 - 0,0
24.03.2019 14:00:00 11,0 5,7 9 5 18 10 N 1031,8 - 0,0
24.03.2019 13:00:00 10,6 6,3 15 8 23 12 N 1032,1 16 0,0
24.03.2019 12:00:00 11,3 6,6 15 8 19 11 NNO 1032,3 - 0,0
24.03.2019 11:00:00 10,7 6,4 14 8 21 11 NNO 1031,9 - 0,0
24.03.2019 10:00:00 9,8 5,8 15 8 18 10 NNO 1031,9 16 0,0
24.03.2019 09:00:00 9,7 6,4 12 6 18 10 NO 1031,4 - 0,0
24.03.2019 08:00:00 9,1 6,0 14 8 19 10 ONO 1030,9 - 0,0
24.03.2019 07:00:00 8,6 5,9 14 8 25 13 O 1030,1 12 0,0
24.03.2019 06:00:00 8,7 5,8 17 9 26 14 O 1030,0 - 0,0
24.03.2019 05:00:00 9,2 6,3 19 10 27 14 ONO 1030,5 - 0,0
24.03.2019 04:00:00 9,4 6,3 17 9 26 14 ONO 1030,7 8 0,0
24.03.2019 03:00:00 9,4 7,0 17 9 23 13 ONO 1030,6 - 0,0
24.03.2019 02:00:00 9,5 7,3 16 9 22 12 ONO 1030,7 - 0,0
24.03.2019 01:00:00 9,5 7,4 13 7 22 12 O 1030,8 6 0,0
24.03.2019 00:00:00 9,5 7,6 15 8 23 13 O 1031,1 - 0,0
23.03.2019 23:00:00 9,5 7,8 16 9 25 13 O 1031,1 - 0,0
23.03.2019 22:00:00 9,7 8,0 18 10 29 16 ONO 1031,3 6 0,0
23.03.2019 21:00:00 9,8 8,1 21 11 31 17 ONO 1031,1 - 0,0
23.03.2019 20:00:00 9,8 8,1 21 11 29 16 ONO 1030,9 - 0,0
23.03.2019 19:00:00 9,9 8,2 19 10 29 15 ONO 1030,8 6 0,0
23.03.2019 18:00:00 10,3 8,4 17 9 25 13 ONO 1030,9 - 0,0
23.03.2019 17:00:00 10,5 8,4 17 9 24 13 ONO 1030,7 - 0,0
23.03.2019 16:00:00 10,8 8,7 16 9 26 14 NO 1030,9 6 0,0
23.03.2019 15:00:00 11,0 8,7 12 6 16 9 NO 1031,1 - 0,0
23.03.2019 14:00:00 11,1 8,7 6 3 9 5 NO 1031,3 - 0,0
23.03.2019 13:00:00 11,1 8,7 4 2 6 4 NNO 1031,5 8 0,0
23.03.2019 12:00:00 10,7 8,3 4 2 5 3 N 1031,5 - 0,0
23.03.2019 11:00:00 10,4 8,0 3 2 6 3 ZW 1031,6 - 0,0
23.03.2019 10:00:00 10,0 7,8 6 4 8 5 ZZW 1031,4 8 0,0
23.03.2019 09:00:00 9,7 7,8 5 3 10 6 ZW 1031,0 - 0,0
23.03.2019 08:00:00 8,9 7,3 6 4 10 6 Z 1030,6 - 0,0
23.03.2019 07:00:00 8,5 7,0 9 5 12 6 Z 1030,2 8 0,0
23.03.2019 06:00:00 9,0 7,4 10 5 13 7 ZZW 1030,0 - 0,0
23.03.2019 05:00:00 7,9 6,4 11 6 14 7 ZZW 1029,9 - 0,0
23.03.2019 04:00:00 6,8 4,9 10 5 13 7 ZZW 1029,6 16 0,0
23.03.2019 03:00:00 6,2 3,9 11 6 13 7 ZZW 1029,7 - 0,0
23.03.2019 02:00:00 6,1 3,8 8 5 9 5 ZZW 1029,6 - 0,0
23.03.2019 01:00:00 6,3 4,1 6 4 7 4 Z 1029,5 16 0,0
23.03.2019 00:00:00 6,2 4,4 4 2 4 2 Z 1029,6 - 0,0
22.03.2019 23:00:00 5,9 4,1 2 1 4 2 ZO 1029,7 - 0,0
22.03.2019 22:00:00 6,8 5,1 3 2 7 4 ZZO 1029,5 7 0,0
22.03.2019 21:00:00 8,0 6,0 0 0 7 4 N 1029,4 - 0,0
22.03.2019 20:00:00 9,5 7,1 4 2 7 4 NW 1029,1 - 0,0
22.03.2019 19:00:00 9,9 7,0 3 2 6 3 NNW 1028,5 8 0,0
22.03.2019 18:00:00 11,1 7,8 3 2 7 4 N 1028,1 - 0,0
22.03.2019 17:00:00 11,8 8,1 4 2 9 5 WNW 1028,3 - 0,0
22.03.2019 16:00:00 11,5 8,0 6 3 9 5 W 1028,5 10 0,0
22.03.2019 15:00:00 11,7 8,0 8 4 11 6 W 1028,7 - 0,0
22.03.2019 14:00:00 11,9 8,0 6 3 10 5 W 1028,7 - 0,0
22.03.2019 13:00:00 12,0 7,9 5 3 7 4 NW 1029,1 10 0,0
22.03.2019 12:00:00 12,0 8,3 5 3 8 4 WNW 1029,5 - 0,0
22.03.2019 11:00:00 11,3 7,4 3 1 8 4 N 1029,7 - 0,0
22.03.2019 10:00:00 10,6 7,7 4 2 7 4 NO 1029,8 10 0,0
22.03.2019 09:00:00 9,8 7,4 3 2 11 6 Z 1029,7 - 0,0
22.03.2019 08:00:00 8,9 6,7 7 4 11 6 ZZO 1029,5 - 0,0
22.03.2019 07:00:00 8,6 6,4 8 4 10 6 ZO 1029,2 10 0,0
22.03.2019 06:00:00 8,7 6,3 6 3 9 5 ZZO 1029,4 - 0,0
22.03.2019 05:00:00 8,7 6,1 4 2 10 5 Z 1029,7 - 0,0
22.03.2019 04:00:00 8,8 6,1 5 3 12 6 Z 1030,2 16 0,0
22.03.2019 03:00:00 8,8 6,1 4 2 21 11 ZO 1030,4 - 0,0
22.03.2019 02:00:00 8,9 6,0 16 9 24 13 ZO 1030,5 - 0,0
22.03.2019 01:00:00 9,4 6,7 6 3 15 8 ZO 1030,9 16 0,0
22.03.2019 00:00:00 9,4 6,5 8 4 12 7 OZO 1031,8 - 0,0
21.03.2019 23:00:00 9,6 6,7 6 3 13 7 O 1031,9 - 0,0
21.03.2019 22:00:00 9,6 6,9 6 3 9 5 O 1032,3 - 0,0
21.03.2019 21:00:00 9,6 7,2 5 3 8 4 ONO 1032,4 - 0,0
21.03.2019 20:00:00 9,9 7,8 0 0 6 3 N 1032,6 - 0,0
21.03.2019 19:00:00 10,1 8,0 4 2 8 4 O 1032,5 16 0,0
21.03.2019 18:00:00 10,4 8,2 5 3 9 5 ONO 1032,6 - 0,0
21.03.2019 17:00:00 10,6 8,4 6 3 9 5 NO 1032,9 - 0,0
21.03.2019 16:00:00 10,8 8,4 7 4 9 5 N 1033,2 15 0,0
21.03.2019 15:00:00 11,2 8,8 4 2 8 5 NNW 1033,8 - 0,0
21.03.2019 14:00:00 11,1 8,8 4 2 6 4 N 1034,7 - 0,0
21.03.2019 13:00:00 11,3 9,2 0 0 5 3 N 1034,9 15 0,0
21.03.2019 12:00:00 10,9 9,2 3 1 5 3 N 1035,1 - 0,0
21.03.2019 11:00:00 10,7 9,1 4 2 6 4 NO 1035,3 - 0,0
21.03.2019 10:00:00 10,3 8,9 4 2 8 4 NO 1035,1 15 0,0
21.03.2019 09:00:00 10,0 8,6 6 3 15 8 NW 1034,9 - 0,0
21.03.2019 08:00:00 9,7 8,1 11 6 18 10 WNW 1034,7 - 0,2
21.03.2019 07:00:00 9,8 8,2 10 5 16 8 ZZW 1034,3 8 0,2
21.03.2019 06:00:00 9,8 8,1 9 5 13 7 ZZW 1034,0 - 0,0
21.03.2019 05:00:00 9,6 7,7 4 2 6 4 ZW 1033,9 - 0,0
21.03.2019 04:00:00 9,9 8,0 6 3 12 7 WZW 1034,0 10 0,0
21.03.2019 03:00:00 9,9 8,0 7 4 12 7 ZZW 1034,3 - 0,0
21.03.2019 02:00:00 9,9 8,2 8 4 12 6 ZZW 1034,6 - 0,0
21.03.2019 01:00:00 9,8 8,1 5 3 11 6 ZW 1034,7 14 0,0
21.03.2019 00:00:00 9,8 8,1 6 3 16 9 WNW 1035,0 - 0,0
20.03.2019 23:00:00 9,7 8,1 7 4 18 10 W 1035,0 - 0,0
20.03.2019 22:00:00 9,6 8,0 13 7 21 11 W 1035,0 2,0 0,0
20.03.2019 21:00:00 10,0 8,6 16 9 25 14 W 1034,8 - 0,0
20.03.2019 20:00:00 10,0 8,6 16 9 24 13 ZW 1034,6 - 0,0
20.03.2019 19:00:00 10,0 8,6 13 7 20 11 ZZW 1034,3 12 0,0
20.03.2019 18:00:00 10,1 8,7 13 7 19 11 Z 1033,9 - 0,0
20.03.2019 17:00:00 10,4 8,8 14 8 24 13 ZW 1033,8 - 0,0
20.03.2019 16:00:00 10,4 9,0 18 10 25 13 ZZW 1033,9 - 0,0
20.03.2019 15:00:00 10,9 9,5 20 11 29 16 ZZW 1034,1 - 0,0
20.03.2019 14:00:00 10,7 9,3 18 10 27 15 ZZW 1034,5 - 0,0
20.03.2019 13:00:00 10,7 9,3 18 10 26 14 ZZW 1034,7 10 0,0
20.03.2019 12:00:00 10,5 9,1 19 11 26 14 ZW 1034,6 - 0,0
20.03.2019 11:00:00 10,5 9,1 19 10 25 14 ZW 1034,5 - 0,0
20.03.2019 10:00:00 10,5 9,1 16 8 21 12 ZZW 1034,2 15 0,0
20.03.2019 09:00:00 10,3 8,9 15 8 22 12 ZZW 1033,8 - 0,0
20.03.2019 08:00:00 9,8 8,4 16 8 22 12 ZZW 1033,2 - 0,0
20.03.2019 07:00:00 9,7 8,3 18 10 29 16 ZW 1032,6 8 0,0
20.03.2019 06:00:00 9,6 8,0 16 9 23 12 ZW 1032,3 - 0,0
20.03.2019 05:00:00 9,5 7,8 16 9 21 12 ZZW 1031,9 - 0,0
20.03.2019 04:00:00 9,4 7,7 15 8 21 12 ZZW 1031,9 16 0,0
20.03.2019 03:00:00 9,2 7,5 17 9 23 12 ZW 1032,2 - 0,0
20.03.2019 02:00:00 9,2 7,3 16 9 22 12 ZW 1032,1 - 0,0
20.03.2019 01:00:00 9,5 7,6 13 7 19 11 ZW 1032,5 16 0,0
20.03.2019 00:00:00 9,2 7,5 14 8 19 11 ZW 1032,3 - 0,2
19.03.2019 23:00:00 9,3 7,6 15 8 19 11 ZW 1031,7 - 0,0

tt = temperatuur
td = dauwpunt
ff = windsnelheid
fx = windstoten
dd = windrichting
ppp = luchtdruk
vv = zicht
rr = neerslag

Weerstations in de omgeving